sat.trackr.live / text

‹ back to catalog

HJ-2A

NORAD 46478 · 2020-067A

PAYLOAD ACTIVE UNKNOWN

§ Identity

Operator
Country
PRC
Launch date
2020-09-27
Launch site
TAISC
Launch vehicle
Mass (kg)
RCS (m²)

External: N2YO · Heavens-Above · Gunter

§ Orbital elements

Epoch: 2026-09-04T04:21:17.676576Z

Period
97.53 min
Inclination
97.8773°
Eccentricity
0.0004207
Mean motion
14.76538212 rev/d
Perigee alt
637.3 km
Apogee alt
643.2 km
Semi-major
7,018.4 km
B*
8.6626e-5
RAAN
323.6658°
Arg perigee
31.6248°
Mean anomaly
328.5215°
Rev number
31,991

§ Raw data

HJ-2A1 46478U 20067A   26247.18145459  .00000554  00000+0  86626-4 0  99972 46478  97.8773 323.6658 0004207  31.6248 328.5215 14.76538212319910

JSON: /api/v1/satellites/46478 · /tle

For live sub-satellite position, see the globe view (requires WebGL).

§ Visibility from observer

Set your observer location to see the next 7 days of passes ≥ 10°. The values pass through the URL so the page stays shareable.

No JS? Fill the form by hand. The geolocation button needs JavaScript.

§ Radio — SatNOGS DB

ModeDescriptionDownlinkUplink
FM S-band telemetry 2.238 GHz

1 transmitter · refreshed weekly from db.satnogs.org